Location: Brusselsch Zeekanaal
(50.8667°N, 4.3667°E)
Time: 01:41:26
(UTC+00:00)

Cosmos 44 Rocket - Pass Details

Date: 08 November 2025
Orbit: 637 x 741 km, 65.1° (Epoch: 13 December)

Event Time Altitude Azimuth Distance (km) Brightness Sun altitude
Exits shadow 04:05:15 83° 300° (WNW) 745 3.2 -25.6°
Maximum altitude 04:05:26 88° 233° (SW) 741 3.3 -25.5°
Drops below altitude 10° 04:10:36 10° 142° (SE) 2,245 6.3 -24.7°
Sets 04:12:59 0° 142° (SE) 3,167 7.2 -24.3°
